2023/08/10 00:00:00, 0.5,28.6
2023/08/10 00:10:00, 0.7,28.6
2023/08/10 00:20:00, 0.8,28.7
2023/08/10 00:30:00, 0.4,29.0
2023/08/10 00:40:00, 0.7,28.5
2023/08/10 00:50:00, 0.1,28.7
2023/08/10 01:00:00, 6.4,28.9
2023/08/10 01:10:00, 0.9,28.8
2023/08/10 01:20:00, 1.0,29.0
2023/08/10 01:30:00, 4.6,28.9
2023/08/10 01:40:00, 7.8,28.7
2023/08/10 01:50:00,11.2,28.9
2023/08/10 02:00:00, 3.4,28.7
2023/08/10 02:10:00,---,29.7
2023/08/10 02:20:00,---,28.8
2023/08/10 02:30:00, 7.3,28.6
2023/08/10 02:40:00, 0.6,28.7
2023/08/10 02:50:00, 0.5,28.7
2023/08/10 03:00:00, 1.7,28.7
2023/08/10 03:10:00, 0.6,28.6
2023/08/10 03:20:00, 0.4,28.6
2023/08/10 03:30:00, 0.2,29.1
2023/08/10 03:40:00, 0.6,28.7
2023/08/10 03:50:00, 1.9,28.8
2023/08/10 04:00:00,---,28.7
2023/08/10 04:10:00, 0.5,28.7
2023/08/10 04:20:00, 0.1,28.8
2023/08/10 04:30:00, 0.1,28.3
2023/08/10 04:40:00, 0.4,27.8
2023/08/10 04:50:00, 0.2,27.9
2023/08/10 05:00:00, 0.3,27.6
2023/08/10 05:10:00, 0.2,28.0
2023/08/10 05:20:00, 0.1,27.4
2023/08/10 05:30:00, 0.2,26.7
2023/08/10 05:40:00, 0.2,27.1
2023/08/10 05:50:00, 0.2,26.5
2023/08/10 06:00:00, 0.2,26.9
2023/08/10 06:10:00, 0.1,26.5
2023/08/10 06:20:00, 0.1,26.8
2023/08/10 06:30:00, 0.1,26.6
2023/08/10 06:40:00, 0.1,26.7
2023/08/10 06:50:00, 0.1,27.5
2023/08/10 07:00:00, 0.1,27.8
2023/08/10 07:10:00, 0.4,27.8
2023/08/10 07:20:00, 0.2,28.2
2023/08/10 07:30:00, 0.9,28.1
2023/08/10 07:40:00, 3.4,28.4
2023/08/10 07:50:00, 0.1,28.2
2023/08/10 08:00:00, 0.1,28.5
2023/08/10 08:10:00, 0.1,29.3
2023/08/10 08:20:00, 0.1,29.3
2023/08/10 08:30:00, 0.9,29.4
2023/08/10 08:40:00, 0.1,29.2
2023/08/10 08:50:00, 0.1,28.3
2023/08/10 09:00:00, 0.6,28.2
2023/08/10 09:10:00, 0.1,28.9
2023/08/10 09:20:00, 0.1,28.4
2023/08/10 09:30:00, 3.2,28.6
2023/08/10 09:40:00, 0.2,29.1
2023/08/10 09:50:00, 0.2,30.4
2023/08/10 10:00:00, 0.1,30.2
2023/08/10 10:10:00, 0.1,30.4
2023/08/10 10:20:00, 0.2,29.7
2023/08/10 10:30:00, 0.1,29.7
2023/08/10 10:40:00, 0.1,30.1
2023/08/10 10:50:00, 0.1,30.5
2023/08/10 11:00:00, 0.2,31.0
2023/08/10 11:10:00, 1.6,30.9
2023/08/10 11:20:00, 0.4,32.4
2023/08/10 11:30:00, 0.4,32.0
2023/08/10 11:40:00, 0.3,32.1
2023/08/10 11:50:00, 0.3,32.5
2023/08/10 12:00:00, 0.3,31.5
2023/08/10 12:10:00, 0.4,31.8
2023/08/10 12:20:00, 4.2,32.1
2023/08/10 12:30:00, 3.2,32.1
2023/08/10 12:40:00, 3.1,32.5
2023/08/10 12:50:00, 2.5,32.3
2023/08/10 13:00:00, 1.5,32.7
2023/08/10 13:10:00, 0.7,33.1
2023/08/10 13:20:00, 2.8,32.1
2023/08/10 13:30:00,---,32.6
2023/08/10 13:40:00, 0.3,32.3
2023/08/10 13:50:00, 0.6,31.7
2023/08/10 14:00:00, 0.3,31.9
2023/08/10 14:10:00, 0.4,31.8
2023/08/10 14:20:00, 4.8,31.2
2023/08/10 14:30:00, 0.4,31.6
2023/08/10 14:40:00, 0.4,32.1
2023/08/10 14:50:00, 0.5,32.6
2023/08/10 15:00:00, 0.4,32.6
2023/08/10 15:10:00, 0.4,32.8
2023/08/10 15:20:00, 0.4,32.6
2023/08/10 15:30:00, 0.5,32.6
2023/08/10 15:40:00, 0.4,33.0
2023/08/10 15:50:00, 0.4,32.8
2023/08/10 16:00:00, 1.3,31.7
2023/08/10 16:10:00,---,31.7
2023/08/10 16:20:00, 0.4,32.4
2023/08/10 16:30:00, 0.9,32.5
2023/08/10 16:40:00, 0.6,32.2
2023/08/10 16:50:00, 0.4,32.3
2023/08/10 17:00:00, 0.5,32.3
2023/08/10 17:10:00, 0.4,30.8
2023/08/10 17:20:00, 0.4,30.8
2023/08/10 17:30:00, 3.3,30.4
2023/08/10 17:40:00, 3.4,30.4
2023/08/10 17:50:00,10.0,30.0
2023/08/10 18:00:00, 5.3,30.6
2023/08/10 18:10:00,15.0,29.9
2023/08/10 18:20:00,13.2,29.7
2023/08/10 18:30:00,10.2,29.7
2023/08/10 18:40:00, 8.1,29.6
2023/08/10 18:50:00, 8.9,29.2
2023/08/10 19:00:00, 7.3,29.4
2023/08/10 19:10:00, 7.3,29.1
2023/08/10 19:20:00,10.7,29.3
2023/08/10 19:30:00,14.7,29.2
2023/08/10 19:40:00, 8.2,29.3
2023/08/10 19:50:00, 8.8,29.3
2023/08/10 20:00:00, 8.2,29.1
2023/08/10 20:10:00,14.6,28.6
2023/08/10 20:20:00,13.6,29.0
2023/08/10 20:30:00, 7.2,28.9
2023/08/10 20:40:00, 5.4,28.7
2023/08/10 20:50:00, 7.0,28.8
2023/08/10 21:00:00, 1.5,29.0
2023/08/10 21:10:00, 3.8,28.5
2023/08/10 21:20:00,10.5,28.6
2023/08/10 21:30:00,14.1,28.5
2023/08/10 21:40:00,11.6,28.3
2023/08/10 21:50:00, 8.8,28.4
2023/08/10 22:00:00, 7.3,28.4
2023/08/10 22:10:00,10.1,28.7
2023/08/10 22:20:00, 8.2,28.7
2023/08/10 22:30:00, 2.4,28.1
2023/08/10 22:40:00, 1.9,28.1
2023/08/10 22:50:00, 9.5,27.9
2023/08/10 23:00:00, 1.9,27.8
2023/08/10 23:10:00, 0.1,27.3
2023/08/10 23:20:00, 0.7,27.6
2023/08/10 23:30:00, 1.4,27.7
2023/08/10 23:40:00, 2.5,27.6
2023/08/10 23:50:00, 2.2,27.9
